Year,Month,Day,Hour,Minute,Value (Times are PST for temperature in C)
2008,07,09,00,00,15.70
2008,07,09,00,01,15.70
2008,07,09,00,02,15.70
2008,07,09,00,03,15.60
2008,07,09,00,04,15.60
2008,07,09,00,05,15.60
2008,07,09,00,06,15.60
2008,07,09,00,07,15.60
2008,07,09,00,08,15.60
2008,07,09,00,09,15.60
2008,07,09,00,10,15.60
2008,07,09,00,11,15.60
2008,07,09,00,12,15.50
2008,07,09,00,13,15.50
2008,07,09,00,14,15.50
2008,07,09,00,15,15.50
2008,07,09,00,16,15.50
2008,07,09,00,17,15.50
2008,07,09,00,18,15.50
2008,07,09,00,19,15.40
2008,07,09,00,20,15.40
2008,07,09,00,21,15.40
2008,07,09,00,22,15.40
2008,07,09,00,23,15.40
2008,07,09,00,24,15.30
2008,07,09,00,25,15.30
2008,07,09,00,26,15.30
2008,07,09,00,27,15.30
2008,07,09,00,28,15.30
2008,07,09,00,29,15.30
2008,07,09,00,30,15.30
2008,07,09,00,31,15.30
2008,07,09,00,32,15.30
2008,07,09,00,33,15.30
2008,07,09,00,34,15.30
2008,07,09,00,35,15.20
2008,07,09,00,36,15.20
2008,07,09,00,37,15.20
2008,07,09,00,38,15.20
2008,07,09,00,39,15.20
2008,07,09,00,40,15.20
2008,07,09,00,41,15.20
2008,07,09,00,42,15.20
2008,07,09,00,43,15.10
2008,07,09,00,44,15.10
2008,07,09,00,45,15.10
2008,07,09,00,46,15.10
2008,07,09,00,47,15.00
2008,07,09,00,48,15.00
2008,07,09,00,49,15.00
2008,07,09,00,50,15.00
2008,07,09,00,51,15.00
2008,07,09,00,52,14.90
2008,07,09,00,53,14.90
2008,07,09,00,54,14.90
2008,07,09,00,55,14.90
2008,07,09,00,56,14.90
2008,07,09,00,57,14.80
2008,07,09,00,58,14.80
2008,07,09,00,59,14.80
2008,07,09,01,00,14.80
2008,07,09,01,01,14.80
2008,07,09,01,02,14.80
2008,07,09,01,03,14.80
2008,07,09,01,04,14.70
2008,07,09,01,05,14.70
2008,07,09,01,06,14.70
2008,07,09,01,07,14.60
2008,07,09,01,08,14.60
2008,07,09,01,09,14.60
2008,07,09,01,10,14.50
2008,07,09,01,11,14.50
2008,07,09,01,12,14.50
2008,07,09,01,13,14.50
2008,07,09,01,14,14.50
2008,07,09,01,15,14.50
2008,07,09,01,16,14.40
2008,07,09,01,17,14.40
2008,07,09,01,18,14.40
2008,07,09,01,19,14.40
2008,07,09,01,20,14.40
2008,07,09,01,21,14.40
2008,07,09,01,22,14.30
2008,07,09,01,23,14.30
2008,07,09,01,24,14.30
2008,07,09,01,25,14.30
2008,07,09,01,26,14.30
2008,07,09,01,27,14.30
2008,07,09,01,28,14.30
2008,07,09,01,29,14.20
2008,07,09,01,30,14.20
2008,07,09,01,31,14.20
2008,07,09,01,32,14.20
2008,07,09,01,33,14.20
2008,07,09,01,34,14.20
2008,07,09,01,35,14.20
2008,07,09,01,36,14.20
2008,07,09,01,37,14.20
2008,07,09,01,38,14.20
2008,07,09,01,39,14.20
2008,07,09,01,40,14.20
2008,07,09,01,41,14.10
2008,07,09,01,42,14.10
2008,07,09,01,43,14.10
2008,07,09,01,44,14.10
2008,07,09,01,45,14.10
2008,07,09,01,46,14.10
2008,07,09,01,47,14.00
2008,07,09,01,48,14.00
2008,07,09,01,49,14.00
2008,07,09,01,50,14.00
2008,07,09,01,51,14.00
2008,07,09,01,52,14.00
2008,07,09,01,53,14.00
2008,07,09,01,54,14.00
2008,07,09,01,55,14.00
2008,07,09,01,56,13.90
2008,07,09,01,57,13.90
2008,07,09,01,58,13.90
2008,07,09,01,59,13.90
2008,07,09,02,00,13.90
2008,07,09,02,01,13.90
2008,07,09,02,02,13.90
2008,07,09,02,03,13.90
2008,07,09,02,04,13.90
2008,07,09,02,05,13.90
2008,07,09,02,06,13.80
2008,07,09,02,07,13.80
2008,07,09,02,08,13.80
2008,07,09,02,09,13.80
2008,07,09,02,10,13.80
2008,07,09,02,11,13.80
2008,07,09,02,12,13.80
2008,07,09,02,13,13.80
2008,07,09,02,14,13.80
2008,07,09,02,15,13.80
2008,07,09,02,16,13.80
2008,07,09,02,17,13.70
2008,07,09,02,18,13.70
2008,07,09,02,19,13.70
2008,07,09,02,20,13.70
2008,07,09,02,21,13.70
2008,07,09,02,22,13.70
2008,07,09,02,23,13.70
2008,07,09,02,24,13.70
2008,07,09,02,25,13.70
2008,07,09,02,26,13.70
2008,07,09,02,27,13.70
2008,07,09,02,28,13.70
2008,07,09,02,29,13.70
2008,07,09,02,30,13.60
2008,07,09,02,31,13.60
2008,07,09,02,32,13.60
2008,07,09,02,33,13.60
2008,07,09,02,34,13.60
2008,07,09,02,35,13.60
2008,07,09,02,36,13.60
2008,07,09,02,37,13.60
2008,07,09,02,38,13.60
2008,07,09,02,39,13.60
2008,07,09,02,40,13.60
2008,07,09,02,41,13.60
2008,07,09,02,42,13.60
2008,07,09,02,43,13.60
2008,07,09,02,44,13.60
2008,07,09,02,45,13.60
2008,07,09,02,46,13.60
2008,07,09,02,47,13.60
2008,07,09,02,48,13.60
2008,07,09,02,49,13.50
2008,07,09,02,50,13.50
2008,07,09,02,51,13.50
2008,07,09,02,52,13.50
2008,07,09,02,53,13.50
2008,07,09,02,54,13.50
2008,07,09,02,55,13.50
2008,07,09,02,56,13.50
2008,07,09,02,57,13.50
2008,07,09,02,58,13.50
2008,07,09,02,59,13.50
2008,07,09,03,00,13.50
2008,07,09,03,01,13.50
2008,07,09,03,02,13.50
2008,07,09,03,03,13.50
2008,07,09,03,04,13.50
2008,07,09,03,05,13.50
2008,07,09,03,06,13.40
2008,07,09,03,07,13.40
2008,07,09,03,08,13.40
2008,07,09,03,09,13.40
2008,07,09,03,10,13.40
2008,07,09,03,11,13.40
2008,07,09,03,12,13.40
2008,07,09,03,13,13.40
2008,07,09,03,14,13.30
2008,07,09,03,15,13.30
2008,07,09,03,16,13.30
2008,07,09,03,17,13.30
2008,07,09,03,18,13.30
2008,07,09,03,19,13.30
2008,07,09,03,20,13.30
2008,07,09,03,21,13.30
2008,07,09,03,22,13.20
2008,07,09,03,23,13.20
2008,07,09,03,24,13.20
2008,07,09,03,25,13.20
2008,07,09,03,26,13.20
2008,07,09,03,27,13.20
2008,07,09,03,28,13.10
2008,07,09,03,29,13.10
2008,07,09,03,30,13.10
2008,07,09,03,31,13.10
2008,07,09,03,32,13.10
2008,07,09,03,33,13.10
2008,07,09,03,34,13.10
2008,07,09,03,35,13.10
2008,07,09,03,36,13.10
2008,07,09,03,37,13.10
2008,07,09,03,38,13.10
2008,07,09,03,39,13.10
2008,07,09,03,40,13.10
2008,07,09,03,41,13.10
2008,07,09,03,42,13.10
2008,07,09,03,43,13.10
2008,07,09,03,44,13.10
2008,07,09,03,45,13.10
2008,07,09,03,46,13.10
2008,07,09,03,47,13.10
2008,07,09,03,48,13.10
2008,07,09,03,49,13.10
2008,07,09,03,50,13.10
2008,07,09,03,51,13.10
2008,07,09,03,52,13.10
2008,07,09,03,53,13.10
2008,07,09,03,54,13.10
2008,07,09,03,55,13.10
2008,07,09,03,56,13.00
2008,07,09,03,57,13.00
2008,07,09,03,58,13.00
2008,07,09,03,59,13.00
2008,07,09,04,00,13.00
2008,07,09,04,01,13.00
2008,07,09,04,02,13.00
2008,07,09,04,03,13.00
2008,07,09,04,04,13.00
2008,07,09,04,05,13.00
2008,07,09,04,06,13.00
2008,07,09,04,07,13.00
2008,07,09,04,08,13.00
2008,07,09,04,09,13.00
2008,07,09,04,10,12.90
2008,07,09,04,11,12.90
2008,07,09,04,12,12.90
2008,07,09,04,13,12.90
2008,07,09,04,14,12.90
2008,07,09,04,15,12.90
2008,07,09,04,16,12.80
2008,07,09,04,17,12.80
2008,07,09,04,18,12.80
2008,07,09,04,19,12.80
2008,07,09,04,20,12.80
2008,07,09,04,21,12.80
2008,07,09,04,22,12.80
2008,07,09,04,23,12.80
2008,07,09,04,24,12.80
2008,07,09,04,25,12.80
2008,07,09,04,26,12.80
2008,07,09,04,27,12.80
2008,07,09,04,28,12.80
2008,07,09,04,29,12.70
2008,07,09,04,30,12.70
2008,07,09,04,31,12.70
2008,07,09,04,32,12.70
2008,07,09,04,33,12.70
2008,07,09,04,34,12.70
2008,07,09,04,35,12.70
2008,07,09,04,36,12.70
2008,07,09,04,37,12.70
2008,07,09,04,38,12.70
2008,07,09,04,39,12.70
2008,07,09,04,40,12.70
2008,07,09,04,41,12.70
2008,07,09,04,42,12.70
2008,07,09,04,43,12.70
2008,07,09,04,44,12.70
2008,07,09,04,45,12.70
2008,07,09,04,46,12.70
2008,07,09,04,47,12.70
2008,07,09,04,48,12.70
2008,07,09,04,49,12.70
2008,07,09,04,50,12.70
2008,07,09,04,51,12.70
2008,07,09,04,52,12.70
2008,07,09,04,53,12.70
2008,07,09,04,54,12.70
2008,07,09,04,55,12.70
2008,07,09,04,56,12.70
2008,07,09,04,57,12.70
2008,07,09,04,58,12.70
2008,07,09,04,59,12.70
2008,07,09,05,00,12.60
2008,07,09,05,01,12.60
2008,07,09,05,02,12.60
2008,07,09,05,03,12.60
2008,07,09,05,04,12.60
2008,07,09,05,05,12.60
2008,07,09,05,06,12.60
2008,07,09,05,07,12.60
2008,07,09,05,08,12.50
2008,07,09,05,09,12.50
2008,07,09,05,10,12.50
2008,07,09,05,11,12.50
2008,07,09,05,12,12.50
2008,07,09,05,13,12.50
2008,07,09,05,14,12.40
2008,07,09,05,15,12.40
2008,07,09,05,16,12.40
2008,07,09,05,17,12.40
2008,07,09,05,18,12.40
2008,07,09,05,19,12.40
2008,07,09,05,20,12.40
2008,07,09,05,21,12.30
2008,07,09,05,22,12.30
2008,07,09,05,23,12.30
2008,07,09,05,24,12.30
2008,07,09,05,25,12.30
2008,07,09,05,26,12.30
2008,07,09,05,27,12.30
2008,07,09,05,28,12.30
2008,07,09,05,29,12.30
2008,07,09,05,30,12.30
2008,07,09,05,31,12.30
2008,07,09,05,32,12.30
2008,07,09,05,33,12.30
2008,07,09,05,34,12.30
2008,07,09,05,35,12.30
2008,07,09,05,36,12.30
2008,07,09,05,37,12.30
2008,07,09,05,38,12.30
2008,07,09,05,39,12.30
2008,07,09,05,40,12.30
2008,07,09,05,41,12.30
2008,07,09,05,42,12.30
2008,07,09,05,43,12.30
2008,07,09,05,44,12.30
2008,07,09,05,45,12.30
2008,07,09,05,46,12.30
2008,07,09,05,47,12.30
2008,07,09,05,48,12.30
2008,07,09,05,49,12.30
2008,07,09,05,50,12.30
2008,07,09,05,51,12.30
2008,07,09,05,52,12.30
2008,07,09,05,53,12.30
2008,07,09,05,54,12.30
2008,07,09,05,55,12.30
2008,07,09,05,56,12.30
2008,07,09,05,57,12.30
2008,07,09,05,58,12.30
2008,07,09,05,59,12.30
2008,07,09,06,00,12.30
2008,07,09,06,01,12.30
2008,07,09,06,02,12.30
2008,07,09,06,03,12.30
2008,07,09,06,04,12.40
2008,07,09,06,05,12.40
2008,07,09,06,06,12.40
2008,07,09,06,07,12.40
2008,07,09,06,08,12.40
2008,07,09,06,09,12.50
2008,07,09,06,10,12.50
2008,07,09,06,11,12.60
2008,07,09,06,12,12.70
2008,07,09,06,13,12.70
2008,07,09,06,14,12.80
2008,07,09,06,15,12.80
2008,07,09,06,16,12.90
2008,07,09,06,17,13.00
2008,07,09,06,18,13.00
2008,07,09,06,19,13.10
2008,07,09,06,20,13.20
2008,07,09,06,21,13.30
2008,07,09,06,22,13.30
2008,07,09,06,23,13.40
2008,07,09,06,24,13.50
2008,07,09,06,25,13.60
2008,07,09,06,26,13.60
2008,07,09,06,27,13.60
2008,07,09,06,28,13.50
2008,07,09,06,29,13.50
2008,07,09,06,30,13.40
2008,07,09,06,31,13.40
2008,07,09,06,32,13.40
2008,07,09,06,33,13.40
2008,07,09,06,34,13.40
2008,07,09,06,35,13.40
2008,07,09,06,36,13.40
2008,07,09,06,37,13.50
2008,07,09,06,38,13.50
2008,07,09,06,39,13.50
2008,07,09,06,40,13.60
2008,07,09,06,41,13.70
2008,07,09,06,42,13.80
2008,07,09,06,43,13.80
2008,07,09,06,44,13.90
2008,07,09,06,45,13.90
2008,07,09,06,46,14.00
2008,07,09,06,47,14.10
2008,07,09,06,48,14.10
2008,07,09,06,49,14.20
2008,07,09,06,50,14.30
2008,07,09,06,51,14.50
2008,07,09,06,52,14.60
2008,07,09,06,53,14.80
2008,07,09,06,54,15.00
2008,07,09,06,55,15.20
2008,07,09,06,56,15.40
2008,07,09,06,57,15.40
2008,07,09,06,58,15.50
2008,07,09,06,59,15.70
2008,07,09,07,00,15.80
2008,07,09,07,01,15.90
2008,07,09,07,02,16.00
2008,07,09,07,03,16.10
2008,07,09,07,04,16.20
2008,07,09,07,05,16.30
2008,07,09,07,06,16.40
2008,07,09,07,07,16.40
2008,07,09,07,08,16.40
2008,07,09,07,09,16.50
2008,07,09,07,10,16.60
2008,07,09,07,11,16.60
2008,07,09,07,12,16.60
2008,07,09,07,13,16.60
2008,07,09,07,14,16.60
2008,07,09,07,15,16.50
2008,07,09,07,16,16.60
2008,07,09,07,17,16.70
2008,07,09,07,18,16.70
2008,07,09,07,19,16.80
2008,07,09,07,20,17.00
2008,07,09,07,21,17.00
2008,07,09,07,22,17.20
2008,07,09,07,23,17.30
2008,07,09,07,24,17.30
2008,07,09,07,25,17.40
2008,07,09,07,26,17.40
2008,07,09,07,27,17.40
2008,07,09,07,28,17.50
2008,07,09,07,29,17.50
2008,07,09,07,30,17.50
2008,07,09,07,31,17.60
2008,07,09,07,32,17.70
2008,07,09,07,33,17.80
2008,07,09,07,34,17.90
2008,07,09,07,35,18.00
2008,07,09,07,36,18.10
2008,07,09,07,37,18.20
2008,07,09,07,38,18.20
2008,07,09,07,39,18.30
2008,07,09,07,40,18.30
2008,07,09,07,41,18.40
2008,07,09,07,42,18.50
2008,07,09,07,43,18.50
2008,07,09,07,44,18.60
2008,07,09,07,45,18.60
2008,07,09,07,46,18.60
2008,07,09,07,47,18.60
2008,07,09,07,48,18.60
2008,07,09,07,49,18.60
2008,07,09,07,50,18.70
2008,07,09,07,51,18.70
2008,07,09,07,52,18.60
2008,07,09,07,53,18.60
2008,07,09,07,54,18.60
2008,07,09,07,55,18.60
2008,07,09,07,56,18.70
2008,07,09,07,57,18.80
2008,07,09,07,58,18.80
2008,07,09,07,59,18.80
2008,07,09,08,00,18.80
2008,07,09,08,01,18.80
2008,07,09,08,02,18.80
2008,07,09,08,03,18.70
2008,07,09,08,04,18.60
2008,07,09,08,05,18.60
2008,07,09,08,06,18.60
2008,07,09,08,07,18.50
2008,07,09,08,08,18.50
2008,07,09,08,09,18.50
2008,07,09,08,10,18.50
2008,07,09,08,11,18.50
2008,07,09,08,12,18.50
2008,07,09,08,13,18.50
2008,07,09,08,14,18.50
2008,07,09,08,15,18.60
2008,07,09,08,16,18.60
2008,07,09,08,17,18.60
2008,07,09,08,18,18.60
2008,07,09,08,19,18.70
2008,07,09,08,20,18.70
2008,07,09,08,21,18.70
2008,07,09,08,22,18.70
2008,07,09,08,23,18.70
2008,07,09,08,24,18.80
2008,07,09,08,25,18.80
2008,07,09,08,26,18.80
2008,07,09,08,27,18.80
2008,07,09,08,28,18.80
2008,07,09,08,29,18.90
2008,07,09,08,30,18.90
2008,07,09,08,31,18.90
2008,07,09,08,32,18.90
2008,07,09,08,33,18.90
2008,07,09,08,34,19.00
2008,07,09,08,35,18.90
2008,07,09,08,36,18.90
2008,07,09,08,37,18.90
2008,07,09,08,38,18.90
2008,07,09,08,39,19.00
2008,07,09,08,40,19.10
2008,07,09,08,41,19.20
2008,07,09,08,42,19.30
2008,07,09,08,43,19.40
2008,07,09,08,44,19.50
2008,07,09,08,45,19.50
2008,07,09,08,46,19.50
2008,07,09,08,47,19.40
2008,07,09,08,48,19.40
2008,07,09,08,49,19.50
2008,07,09,08,50,19.60
2008,07,09,08,51,19.70
2008,07,09,08,52,19.70
2008,07,09,08,53,19.90
2008,07,09,08,54,19.90
2008,07,09,08,55,20.00
2008,07,09,08,56,20.10
2008,07,09,08,57,20.10
2008,07,09,08,58,20.10
2008,07,09,08,59,20.10
2008,07,09,09,00,19.90
2008,07,09,09,01,19.90
2008,07,09,09,02,19.80
2008,07,09,09,03,19.70
2008,07,09,09,04,19.60
2008,07,09,09,05,19.50
2008,07,09,09,06,19.50
2008,07,09,09,07,19.50
2008,07,09,09,08,19.60
2008,07,09,09,09,19.60
2008,07,09,09,10,19.70
2008,07,09,09,11,19.70
2008,07,09,09,12,19.90
2008,07,09,09,13,20.00
2008,07,09,09,14,20.10
2008,07,09,09,15,20.20
2008,07,09,09,16,20.20
2008,07,09,09,17,20.10
2008,07,09,09,18,20.10
2008,07,09,09,19,20.00
2008,07,09,09,20,20.10
2008,07,09,09,21,20.10
2008,07,09,09,22,20.00
2008,07,09,09,23,20.10
2008,07,09,09,24,20.20
2008,07,09,09,25,20.20
2008,07,09,09,26,20.20
2008,07,09,09,27,20.20
2008,07,09,09,28,20.30
2008,07,09,09,29,20.30
2008,07,09,09,30,20.30
2008,07,09,09,31,20.30
2008,07,09,09,32,20.30
2008,07,09,09,33,20.30
2008,07,09,09,34,20.30
2008,07,09,09,35,20.20
2008,07,09,09,36,20.20
2008,07,09,09,37,20.20
2008,07,09,09,38,20.10
2008,07,09,09,39,20.10
2008,07,09,09,40,20.10
2008,07,09,09,41,19.90
2008,07,09,09,42,19.90
2008,07,09,09,43,20.00
2008,07,09,09,44,20.10
2008,07,09,09,45,20.20
2008,07,09,09,46,20.20
2008,07,09,09,47,20.30
2008,07,09,09,48,20.40
2008,07,09,09,49,20.50
2008,07,09,09,50,20.70
2008,07,09,09,51,20.70
2008,07,09,09,52,20.60
2008,07,09,09,53,20.60
2008,07,09,09,54,20.60
2008,07,09,09,55,20.60
2008,07,09,09,56,20.60
2008,07,09,09,57,20.60
2008,07,09,09,58,20.50
2008,07,09,09,59,20.40
2008,07,09,10,00,20.40
2008,07,09,10,01,20.30
2008,07,09,10,02,20.30
2008,07,09,10,03,20.30
2008,07,09,10,04,20.30
2008,07,09,10,05,20.30
2008,07,09,10,06,20.20
2008,07,09,10,07,20.20
2008,07,09,10,08,20.20
2008,07,09,10,09,20.20
2008,07,09,10,10,20.20
2008,07,09,10,11,20.20
2008,07,09,10,12,20.20
2008,07,09,10,13,20.20
2008,07,09,10,14,20.20
2008,07,09,10,15,20.20
2008,07,09,10,16,20.20
2008,07,09,10,17,20.20
2008,07,09,10,18,20.20
2008,07,09,10,19,20.20
2008,07,09,10,20,20.20
2008,07,09,10,21,20.20
2008,07,09,10,22,20.20
2008,07,09,10,23,20.20
2008,07,09,10,24,20.20
2008,07,09,10,25,20.30
2008,07,09,10,26,20.40
2008,07,09,10,27,20.40
2008,07,09,10,28,20.50
2008,07,09,10,29,20.50
2008,07,09,10,30,20.40
2008,07,09,10,31,20.50
2008,07,09,10,32,20.50
2008,07,09,10,33,20.60
2008,07,09,10,34,20.50
2008,07,09,10,35,20.30
2008,07,09,10,36,20.10
2008,07,09,10,37,20.10
2008,07,09,10,38,20.10
2008,07,09,10,39,20.10
2008,07,09,10,40,20.20
2008,07,09,10,41,20.30
2008,07,09,10,42,20.40
2008,07,09,10,43,20.50
2008,07,09,10,44,20.60
2008,07,09,10,45,20.60
2008,07,09,10,46,20.70
2008,07,09,10,47,20.80
2008,07,09,10,48,20.80
2008,07,09,10,49,20.90
2008,07,09,10,50,20.80
2008,07,09,10,51,20.70
2008,07,09,10,52,20.50
2008,07,09,10,53,20.30
2008,07,09,10,54,20.20
2008,07,09,10,55,20.10
2008,07,09,10,56,20.00
2008,07,09,10,57,19.90
2008,07,09,10,58,20.00
2008,07,09,10,59,20.10
2008,07,09,11,00,20.20
2008,07,09,11,01,20.30
2008,07,09,11,02,20.40
2008,07,09,11,03,20.50
2008,07,09,11,04,20.40
2008,07,09,11,05,20.40
2008,07,09,11,06,20.40
2008,07,09,11,07,20.50
2008,07,09,11,08,20.50
2008,07,09,11,09,20.50
2008,07,09,11,10,20.60
2008,07,09,11,11,20.50
2008,07,09,11,12,20.40
2008,07,09,11,13,20.40
2008,07,09,11,14,20.40
2008,07,09,11,15,20.20
2008,07,09,11,16,20.20
2008,07,09,11,17,20.30
2008,07,09,11,18,20.30
2008,07,09,11,19,20.20
2008,07,09,11,20,20.20
2008,07,09,11,21,20.20
2008,07,09,11,22,20.00
2008,07,09,11,23,19.90
2008,07,09,11,24,19.90
2008,07,09,11,25,20.00
2008,07,09,11,26,20.10
2008,07,09,11,27,20.10
2008,07,09,11,28,20.10
2008,07,09,11,29,20.10
2008,07,09,11,30,20.20
2008,07,09,11,31,20.20
2008,07,09,11,32,20.20
2008,07,09,11,33,20.20
2008,07,09,11,34,20.20
2008,07,09,11,35,20.20
2008,07,09,11,36,20.20
2008,07,09,11,37,20.20
2008,07,09,11,38,20.40
2008,07,09,11,39,20.40
2008,07,09,11,40,20.40
2008,07,09,11,41,20.40
2008,07,09,11,42,20.40
2008,07,09,11,43,20.40
2008,07,09,11,44,20.30
2008,07,09,11,45,20.20
2008,07,09,11,46,20.30
2008,07,09,11,47,20.30
2008,07,09,11,48,20.50
2008,07,09,11,49,20.70
2008,07,09,11,50,20.80
2008,07,09,11,51,20.90
2008,07,09,11,52,20.90
2008,07,09,11,53,20.90
2008,07,09,11,54,20.90
2008,07,09,11,55,20.90
2008,07,09,11,56,20.80
2008,07,09,11,57,20.80
2008,07,09,11,58,20.90
2008,07,09,11,59,20.90
2008,07,09,12,00,20.90
2008,07,09,12,01,20.80
2008,07,09,12,02,20.60
2008,07,09,12,03,20.70
2008,07,09,12,04,20.70
2008,07,09,12,05,20.70
2008,07,09,12,06,20.70
2008,07,09,12,07,20.50
2008,07,09,12,08,20.30
2008,07,09,12,09,20.20
2008,07,09,12,10,20.00
2008,07,09,12,11,19.80
2008,07,09,12,12,19.80
2008,07,09,12,13,19.80
2008,07,09,12,14,19.80
2008,07,09,12,15,19.80
2008,07,09,12,16,20.00
2008,07,09,12,17,20.10
2008,07,09,12,18,20.30
2008,07,09,12,19,20.50
2008,07,09,12,20,20.60
2008,07,09,12,21,20.60
2008,07,09,12,22,20.50
2008,07,09,12,23,20.50
2008,07,09,12,24,20.40
2008,07,09,12,25,20.40
2008,07,09,12,26,20.50
2008,07,09,12,27,20.70
2008,07,09,12,28,20.70
2008,07,09,12,29,20.60
2008,07,09,12,30,20.40
2008,07,09,12,31,20.30
2008,07,09,12,32,20.50
2008,07,09,12,33,20.60
2008,07,09,12,34,20.80
2008,07,09,12,35,20.90
2008,07,09,12,36,21.00
2008,07,09,12,37,21.00
2008,07,09,12,38,20.80
2008,07,09,12,39,20.80
2008,07,09,12,40,20.80
2008,07,09,12,41,20.90
2008,07,09,12,42,21.00
2008,07,09,12,43,21.00
2008,07,09,12,44,21.10
2008,07,09,12,45,21.30
2008,07,09,12,46,21.40
2008,07,09,12,47,21.40
2008,07,09,12,48,21.40
2008,07,09,12,49,21.50
2008,07,09,12,50,21.40
2008,07,09,12,51,21.30
2008,07,09,12,52,21.10
2008,07,09,12,53,20.90
2008,07,09,12,54,20.80
2008,07,09,12,55,20.60
2008,07,09,12,56,20.50
2008,07,09,12,57,20.50
2008,07,09,12,58,20.50
2008,07,09,12,59,20.50
2008,07,09,13,00,20.70
2008,07,09,13,01,20.80
2008,07,09,13,02,21.00
2008,07,09,13,03,21.10
2008,07,09,13,04,21.10
2008,07,09,13,05,21.10
2008,07,09,13,06,21.00
2008,07,09,13,07,21.00
2008,07,09,13,08,20.90
2008,07,09,13,09,20.80
2008,07,09,13,10,20.70
2008,07,09,13,11,20.70
2008,07,09,13,12,20.60
2008,07,09,13,13,20.70
2008,07,09,13,14,20.90
2008,07,09,13,15,21.10
2008,07,09,13,16,21.20
2008,07,09,13,17,21.30
2008,07,09,13,18,21.30
2008,07,09,13,19,21.40
2008,07,09,13,20,21.60
2008,07,09,13,21,21.60
2008,07,09,13,22,21.60
2008,07,09,13,23,21.50
2008,07,09,13,24,21.40
2008,07,09,13,25,21.30
2008,07,09,13,26,21.10
2008,07,09,13,27,21.10
2008,07,09,13,28,21.10
2008,07,09,13,29,21.20
2008,07,09,13,30,21.20
2008,07,09,13,31,21.20
2008,07,09,13,32,21.00
2008,07,09,13,33,20.90
2008,07,09,13,34,20.80
2008,07,09,13,35,20.80
2008,07,09,13,36,20.80
2008,07,09,13,37,20.80
2008,07,09,13,38,20.80
2008,07,09,13,39,20.80
2008,07,09,13,40,20.80
2008,07,09,13,41,20.80
2008,07,09,13,42,20.80
2008,07,09,13,43,21.00
2008,07,09,13,44,21.00
2008,07,09,13,45,21.20
2008,07,09,13,46,21.10
2008,07,09,13,47,20.90
2008,07,09,13,48,20.90
2008,07,09,13,49,20.90
2008,07,09,13,50,20.80
2008,07,09,13,51,20.80
2008,07,09,13,52,20.80
2008,07,09,13,53,20.70
2008,07,09,13,54,20.70
2008,07,09,13,55,20.70
2008,07,09,13,56,20.80
2008,07,09,13,57,20.90
2008,07,09,13,58,20.90
2008,07,09,13,59,21.00
2008,07,09,14,00,21.00
2008,07,09,14,01,20.90
2008,07,09,14,02,20.80
2008,07,09,14,03,20.90
2008,07,09,14,04,21.00
2008,07,09,14,05,21.00
2008,07,09,14,06,20.90
2008,07,09,14,07,21.00
2008,07,09,14,08,21.00
2008,07,09,14,09,21.00
2008,07,09,14,10,21.00
2008,07,09,14,11,21.10
2008,07,09,14,12,21.00
2008,07,09,14,13,21.00
2008,07,09,14,14,21.10
2008,07,09,14,15,21.20
2008,07,09,14,16,21.30
2008,07,09,14,17,21.30
2008,07,09,14,18,21.30
2008,07,09,14,19,21.30
2008,07,09,14,20,21.30
2008,07,09,14,21,21.10
2008,07,09,14,22,21.10
2008,07,09,14,23,21.20
2008,07,09,14,24,21.20
2008,07,09,14,25,21.20
2008,07,09,14,26,21.30
2008,07,09,14,27,21.40
2008,07,09,14,28,21.50
2008,07,09,14,29,21.70
2008,07,09,14,30,21.90
2008,07,09,14,31,22.00
2008,07,09,14,32,22.10
2008,07,09,14,33,22.10
2008,07,09,14,34,22.30
2008,07,09,14,35,22.30
2008,07,09,14,36,22.30
2008,07,09,14,37,22.20
2008,07,09,14,38,22.10
2008,07,09,14,39,22.00
2008,07,09,14,40,21.90
2008,07,09,14,41,21.80
2008,07,09,14,42,21.70
2008,07,09,14,43,21.60
2008,07,09,14,44,21.60
2008,07,09,14,45,21.60
2008,07,09,14,46,21.60
2008,07,09,14,47,21.60
2008,07,09,14,48,21.60
2008,07,09,14,49,21.60
2008,07,09,14,50,21.50
2008,07,09,14,51,21.40
2008,07,09,14,52,21.30
2008,07,09,14,53,21.30
2008,07,09,14,54,21.30
2008,07,09,14,55,21.30
2008,07,09,14,56,21.30
2008,07,09,14,57,21.30
2008,07,09,14,58,21.50
2008,07,09,14,59,21.60
2008,07,09,15,00,21.60
2008,07,09,15,01,21.70
2008,07,09,15,02,21.80
2008,07,09,15,03,21.80
2008,07,09,15,04,21.90
2008,07,09,15,05,22.00
2008,07,09,15,06,22.10
2008,07,09,15,07,22.10
2008,07,09,15,08,22.00
2008,07,09,15,09,22.00
2008,07,09,15,10,22.00
2008,07,09,15,11,22.20
2008,07,09,15,12,22.30
2008,07,09,15,13,22.50
2008,07,09,15,14,22.60
2008,07,09,15,15,22.80
2008,07,09,15,16,22.70
2008,07,09,15,17,22.60
2008,07,09,15,18,22.50
2008,07,09,15,19,22.40
2008,07,09,15,20,22.10
2008,07,09,15,21,22.00
2008,07,09,15,22,22.00
2008,07,09,15,23,21.80
2008,07,09,15,24,21.60
2008,07,09,15,25,21.60
2008,07,09,15,26,21.60
2008,07,09,15,27,21.60
2008,07,09,15,28,21.80
2008,07,09,15,29,22.00
2008,07,09,15,30,22.10
2008,07,09,15,31,22.00
2008,07,09,15,32,22.00
2008,07,09,15,33,21.90
2008,07,09,15,34,21.90
2008,07,09,15,35,21.90
2008,07,09,15,36,22.10
2008,07,09,15,37,22.40
2008,07,09,15,38,22.60
2008,07,09,15,39,22.90
2008,07,09,15,40,23.00
2008,07,09,15,41,23.10
2008,07,09,15,42,23.00
2008,07,09,15,43,22.90
2008,07,09,15,44,23.00
2008,07,09,15,45,23.10
2008,07,09,15,46,23.20
2008,07,09,15,47,23.10
2008,07,09,15,48,22.90
2008,07,09,15,49,22.90
2008,07,09,15,50,22.90
2008,07,09,15,51,22.90
2008,07,09,15,52,22.90
2008,07,09,15,53,22.90
2008,07,09,15,54,22.90
2008,07,09,15,55,22.90
2008,07,09,15,56,22.90
2008,07,09,15,57,22.90
2008,07,09,15,58,22.90
2008,07,09,15,59,22.90
2008,07,09,16,00,22.90
2008,07,09,16,01,23.00
2008,07,09,16,02,23.10
2008,07,09,16,03,23.10
2008,07,09,16,04,23.10
2008,07,09,16,05,23.10
2008,07,09,16,06,23.10
2008,07,09,16,07,23.20
2008,07,09,16,08,23.10
2008,07,09,16,09,23.10
2008,07,09,16,10,23.20
2008,07,09,16,11,23.20
2008,07,09,16,12,23.30
2008,07,09,16,13,23.40
2008,07,09,16,14,23.30
2008,07,09,16,15,23.30
2008,07,09,16,16,23.30
2008,07,09,16,17,23.30
2008,07,09,16,18,23.20
2008,07,09,16,19,23.10
2008,07,09,16,20,23.10
2008,07,09,16,21,23.10
2008,07,09,16,22,23.10
2008,07,09,16,23,23.30
2008,07,09,16,24,23.30
2008,07,09,16,25,23.50
2008,07,09,16,26,23.60
2008,07,09,16,27,23.60
2008,07,09,16,28,23.70
2008,07,09,16,29,23.70
2008,07,09,16,30,23.70
2008,07,09,16,31,23.70
2008,07,09,16,32,23.70
2008,07,09,16,33,23.70
2008,07,09,16,34,23.70
2008,07,09,16,35,23.40
2008,07,09,16,36,23.00
2008,07,09,16,37,22.60
2008,07,09,16,38,22.30
2008,07,09,16,39,22.00
2008,07,09,16,40,21.70
2008,07,09,16,41,21.30
2008,07,09,16,42,21.00
2008,07,09,16,43,20.60
2008,07,09,16,44,20.40
2008,07,09,16,45,20.20
2008,07,09,16,46,20.20
2008,07,09,16,47,20.20
2008,07,09,16,48,20.10
2008,07,09,16,49,20.10
2008,07,09,16,50,20.10
2008,07,09,16,51,20.10
2008,07,09,16,52,20.00
2008,07,09,16,53,19.90
2008,07,09,16,54,19.80
2008,07,09,16,55,19.60
2008,07,09,16,56,19.50
2008,07,09,16,57,19.40
2008,07,09,16,58,19.40
2008,07,09,16,59,19.30
2008,07,09,17,00,19.30
2008,07,09,17,01,19.40
2008,07,09,17,02,19.40
2008,07,09,17,03,19.60
2008,07,09,17,04,19.70
2008,07,09,17,05,19.80
2008,07,09,17,06,19.90
2008,07,09,17,07,19.90
2008,07,09,17,08,20.10
2008,07,09,17,09,20.20
2008,07,09,17,10,20.10
2008,07,09,17,11,20.10
2008,07,09,17,12,20.10
2008,07,09,17,13,19.90
2008,07,09,17,14,19.90
2008,07,09,17,15,19.90
2008,07,09,17,16,20.10
2008,07,09,17,17,20.20
2008,07,09,17,18,20.20
2008,07,09,17,19,20.20